Weather History for Fayetteville, NC

Change the Weather History Date:

Sunday, October 28, 2012

  Actual Average Record
Temperature  
Mean Temperature 62 °F 60 °F  
Max Temperature 67 °F 72 °F 87 °F (1919)
Min Temperature 56 °F 48 °F 22 °F (1962)
Degree Days  
Heating Degree Days 3 6  
Month to date heating degree days 80 98  
Since 1 July heating degree days 81 107  
Cooling Degree Days 0 1  
Month to date cooling degree days 67 67  
Year to date cooling degree days 2083 1975  
Growing Degree Days 12 (Base 50)    
Moisture  
Dew Point 51 °F    
Average Humidity 64    
Maximum Humidity 75    
Minimum Humidity 52    
Precipitation  
Precipitation 0.00 in 0.06 in 1.40 in (1941)
Month to date precipitation 2.31 3.00  
Year to date precipitation 35.48 38.83  
Sea Level Pressure  
Sea Level Pressure 29.56 in    
Wind  
Wind Speed 16 mph (North)    
Max Wind Speed 25 mph    
Max Gust Speed 33 mph    
Visibility 10 miles    
Events      
T = Trace of Precipitation, MM = Missing Value Source: NWS Daily Summary

Daily Weather History Graph

Daily Weather History Graph

Search for Another Location

Airport:

Trip Planner

Search our weather history database for the weather conditions in past years. The results will help you decide how hot, cold, wet, or windy it might be!

Date:

Astronomy

Oct. 28, 2012 Rise Set
Actual Time 7:33 AM EDT 6:24 PM EDT
Civil Twilight 7:07 AM EDT 6:50 PM EDT
Nautical Twilight 6:37 AM EDT 7:20 PM EDT
Astronomical Twilight 6:07 AM EDT 7:49 PM EDT
Moon 5:41 PM EDT (10/28) 6:25 AM EDT (10/28)
Length of Visible Light 11h 43m
Length of Day
10h 51m
Waxing Gibbous, 99% of the Moon is Illuminated
Oct 28
Waxing Gibbous
Oct 29
Full
Nov 6
Last Quarter
Nov 13
New
Nov 20
First Quarter

Hourly Weather History & Observations

Time (EDT) Temp. Dew Point Humidity Pressure Visibility Wind Dir Wind Speed Gust Speed Precip Events Conditions
12:53 AM 64.0 °F 55.0 °F 73% 29.61 in 10.0 mi NNE 23.0 mph 32.2 mph N/A   Overcast
1:53 AM 64.0 °F 54.0 °F 70% 29.59 in 10.0 mi North 17.3 mph 28.8 mph N/A   Overcast
2:53 AM 63.0 °F 54.0 °F 72% 29.59 in 10.0 mi North 18.4 mph 24.2 mph N/A   Overcast
3:53 AM 62.1 °F 53.1 °F 72% 29.56 in 10.0 mi North 17.3 mph 28.8 mph N/A   Mostly Cloudy
4:01 AM 62.6 °F 53.6 °F 72% 29.58 in 10.0 mi North 15.0 mph 23.0 mph N/A   Scattered Clouds
4:42 AM 62.6 °F 51.8 °F 68% 29.58 in 10.0 mi North 16.1 mph 23.0 mph N/A   Overcast
4:53 AM 62.1 °F 52.0 °F 70% 29.57 in 10.0 mi NNW 17.3 mph 25.3 mph N/A   Mostly Cloudy
5:53 AM 61.0 °F 52.0 °F 72% 29.57 in 10.0 mi North 17.3 mph 24.2 mph N/A   Clear
6:53 AM 60.1 °F 51.1 °F 72% 29.56 in 10.0 mi North 17.3 mph - N/A   Clear
7:53 AM 60.1 °F 50.0 °F 69% 29.57 in 10.0 mi North 15.0 mph 24.2 mph N/A   Clear
8:53 AM 61.0 °F 48.9 °F 64% 29.57 in 10.0 mi North 13.8 mph 24.2 mph N/A   Partly Cloudy
9:53 AM 62.1 °F 48.9 °F 62% 29.57 in 10.0 mi North 19.6 mph 29.9 mph N/A   Clear
10:53 AM 63.0 °F 48.9 °F 60% 29.57 in 10.0 mi North 17.3 mph 27.6 mph N/A   Overcast
11:53 AM 64.9 °F 50.0 °F 58% 29.56 in 10.0 mi North 20.7 mph 27.6 mph N/A   Mostly Cloudy
12:53 PM 64.9 °F 50.0 °F 58% 29.55 in 10.0 mi North 15.0 mph 21.9 mph N/A   Overcast
1:53 PM 64.9 °F 50.0 °F 58% 29.53 in 10.0 mi North 16.1 mph 25.3 mph N/A   Overcast
2:53 PM 64.9 °F 48.9 °F 56% 29.53 in 10.0 mi North 18.4 mph 25.3 mph N/A   Overcast
3:53 PM 66.0 °F 48.9 °F 54% 29.53 in 10.0 mi NNW 10.4 mph 19.6 mph N/A   Overcast
4:53 PM 64.9 °F 48.9 °F 56% 29.54 in 10.0 mi North 11.5 mph - N/A   Overcast
5:53 PM 64.0 °F 48.0 °F 56% 29.54 in 10.0 mi NNW 19.6 mph 26.5 mph N/A   Overcast
6:53 PM 63.0 °F 48.0 °F 58% 29.56 in 10.0 mi North 19.6 mph 25.3 mph N/A   Overcast
7:53 PM 62.1 °F 48.0 °F 60% 29.57 in 10.0 mi North 18.4 mph 27.6 mph N/A   Overcast
8:53 PM 59.0 °F 51.1 °F 75% 29.57 in 10.0 mi North 11.5 mph 20.7 mph N/A   Mostly Cloudy
9:53 PM 59.0 °F 50.0 °F 72% 29.57 in 10.0 mi NNW 13.8 mph 19.6 mph N/A   Overcast
10:53 PM 59.0 °F 50.0 °F 72% 29.57 in 10.0 mi NNW 11.5 mph - N/A   Overcast
11:53 PM 59.0 °F 48.9 °F 69% 29.55 in 10.0 mi NW 12.7 mph - N/A   Overcast